GW5627 Weather Reports


time (UTC)temp
C
wind
direction
speed
KPH
gust
KPH
rain 1hr
cm
rain 24hr
cm
rain mn
cm
humidity
%
barometer
mb
20260504190044 14 243 8.0 12.9 0.00 0.00 0.00 48 1010.4
20260504185541 15 317 8.0 20.9 0.00 0.00 0.00 48 1010.5
20260504185038 15 113 0.0 6.4 0.00 0.00 0.00 47 1010.4
20260504184533 14 340 8.0 11.3 0.00 0.00 0.00 48 1010.9
20260504184029 13 200 0.0 8.0 0.00 0.00 0.00 50 1010.9
20260504183526 14 298 6.4 11.3 0.00 0.00 0.00 50 1010.9
20260504183024 14 356 4.8 11.3 0.00 0.00 0.00 52 1011.3
20260504182521 14 2 9.7 14.5 0.00 0.00 0.00 53 1011.0
20260504182018 14 100 3.2 6.4 0.00 0.00 0.00 54 1011.5
20260504181515 13 302 9.7 16.1 0.00 0.00 0.00 53 1011.5
20260504181014 13 343 8.0 11.3 0.00 0.00 0.00 57 1011.4
20260504180512 12 0 0.0 11.3 0.00 0.00 0.00 54 1011.5
20260504180010 12 270 0.0 6.4 0.00 0.00 0.00 53 1011.7
20260504175507 11 312 3.2 8.0 0.00 0.00 0.00 54 1011.8
20260504175004 11 260 4.8 14.5 0.00 0.00 0.00 54 1011.5
20260504174502 11 262 4.8 14.5 0.00 0.00 0.00 54 1011.5
20260504173959 12 283 3.2 16.1 0.00 0.00 0.00 55 1011.7
20260504173455 12 270 9.7 11.3 0.00 0.00 0.00 55 1011.8
20260504172953 12 202 4.8 11.3 0.00 0.00 0.00 55 1011.9
20260504172449 12 276 4.8 17.7 0.00 0.00 0.00 54 1012.2
20260504171945 12 253 6.4 16.1 0.00 0.00 0.00 54 1012.0
20260504171443 12 280 4.8 19.3 0.00 0.00 0.00 53 1011.9
20260504170939 12 319 6.4 8.0 0.00 0.00 0.00 55 1012.0
20260504170435 12 253 6.4 11.3 0.00 0.00 0.00 53 1012.2
20260504160354 11 112 14.5 19.3 0.00 0.00 0.00 54 1012.3
20260504150819 10 96 4.8 9.7 0.00 0.00 0.00 53 1012.4
20260504150316 11 130 3.2 4.8 0.00 0.00 0.00 52 1012.5
20260504141246 9 108 4.8 8.0 0.00 0.00 0.00 47 1012.8
20260504140742 9 90 3.2 9.7 0.00 0.00 0.00 48 1012.8
20260504140238 9 127 4.8 11.3 0.00 0.00 0.00 47 1012.9
20260504130707 5 132 3.2 4.8 0.00 0.00 0.00 57 1012.7
20260504130203 5 106 0.0 6.4 0.00 0.00 0.00 58 1012.3
20260504120127 4 171 3.2 9.7 0.00 0.00 0.00 52 1012.2
20260504110554 5 122 4.8 6.4 0.00 0.00 0.00 50 1012.2
20260504100516 3 138 4.8 8.0 0.00 0.00 0.00 56 1011.0
20260504081909 3 123 1.6 9.7 0.00 0.00 0.00 56 1011.8
20260504081406 4 140 9.7 9.7 0.00 0.00 0.00 53 1011.8
20260504080902 4 142 8.0 9.7 0.00 0.00 0.00 53 1011.8
20260504080359 5 120 4.8 9.7 0.00 0.00 0.00 53 1012.0
20260504070327 5 129 3.2 8.0 0.00 0.00 0.00 52 1012.3
20260504060247 6 123 3.2 4.8 0.00 0.00 0.00 48 1012.5
20260504050715 6 131 1.6 4.8 0.00 0.00 0.00 44 1012.9
20260504050212 7 135 3.2 8.0 0.00 0.00 0.00 44 1013.2
20260504045709 7 114 0.0 3.2 0.00 0.00 0.00 43 1013.0
20260504045209 7 139 1.6 3.2 0.00 0.00 0.00 42 1013.0
20260504044708 7 126 0.0 4.8 0.00 0.00 0.00 42 1013.3
20260504044204 7 135 6.4 6.4 0.00 0.00 0.00 42 1013.0
20260504043701 7 143 0.0 8.0 0.00 0.00 0.00 42 1013.2
20260504043158 7 191 1.6 4.8 0.00 0.00 0.00 43 1013.0
20260504042655 7 196 0.0 4.8 0.00 0.00 0.00 42 1013.4
20260504042152 8 117 3.2 4.8 0.00 0.00 0.00 38 1013.5
20260504041648 8 165 0.0 3.2 0.00 0.00 0.00 37 1013.2
20260504041144 9 135 0.0 3.2 0.00 0.00 0.00 36 1013.3
20260504040641 9 135 0.0 4.8 0.00 0.00 0.00 36 1013.3
20260504040138 9 166 0.0 3.2 0.00 0.00 0.00 36 1013.2
20260504035635 10 191 1.6 4.8 0.00 0.00 0.00 36 1012.9
20260504035131 10 190 0.0 3.2 0.00 0.00 0.00 36 1012.9
20260504034629 9 203 4.8 4.8 0.00 0.00 0.00 36 1013.0
20260504034126 9 180 1.6 3.2 0.00 0.00 0.00 35 1013.2
20260504033624 10 187 0.0 3.2 0.00 0.00 0.00 35 1013.3
20260504033121 9 195 0.0 1.6 0.00 0.00 0.00 35 1013.0
20260504032618 10 210 3.2 3.2 0.00 0.00 0.00 35 1013.4
20260504032115 9 203 0.0 3.2 0.00 0.00 0.00 35 1013.3
20260504031612 9 261 0.0 3.2 0.00 0.00 0.00 35 1013.2
20260504031108 10 352 0.0 4.8 0.00 0.00 0.00 35 1013.0
20260504030605 9 249 0.0 3.2 0.00 0.00 0.00 35 1013.0
20260504025558 10 292 3.2 4.8 0.00 0.00 0.00 35 1013.0
20260504025055 10 8 0.0 3.2 0.00 0.00 0.00 35 1013.0
20260504024552 10 255 1.6 4.8 0.00 0.00 0.00 35 1012.7
20260504024049 10 209 0.0 3.2 0.00 0.00 0.00 34 1013.0
20260504023546 10 261 0.0 1.6 0.00 0.00 0.00 34 1012.7
20260504023042 10 188 0.0 0.0 0.00 0.00 0.00 34 1012.9
20260504022538 10 261 0.0 0.0 0.00 0.00 0.00 34 1012.9
20260504022034 10 259 0.0 3.2 0.00 0.00 0.00 34 1012.9
20260504021532 10 195 0.0 3.2 0.00 0.00 0.00 34 1012.8
20260504021028 11 270 0.0 3.2 0.00 0.00 0.00 34 1012.7
20260504020525 11 195 0.0 4.8 0.00 0.00 0.00 35 1012.7
20260504020022 11 303 1.6 3.2 0.00 0.00 0.00 35 1012.7
20260504015518 12 240 0.0 3.2 0.00 0.00 0.00 34 1012.7
20260504015014 12 270 4.8 8.0 0.00 0.00 0.00 33 1012.5
20260504014510 12 278 3.2 8.0 0.00 0.00 0.00 32 1012.8
20260504014008 12 243 4.8 8.0 0.00 0.00 0.00 33 1012.7
20260504013506 13 330 6.4 6.4 0.00 0.00 0.00 33 1012.4
20260504013001 13 262 1.6 8.0 0.00 0.00 0.00 33 1012.9
20260504012500 13 270 4.8 11.3 0.00 0.00 0.00 33 1012.7
20260504011958 13 234 8.0 9.7 0.00 0.00 0.00 32 1012.8
20260504011454 13 253 4.8 16.1 0.00 0.00 0.00 32 1012.7
20260504010949 13 286 4.8 9.7 0.00 0.00 0.00 32 1012.8
20260504010446 14 245 4.8 12.9 0.00 0.00 0.00 32 1013.0
20260504005942 14 250 4.8 12.9 0.00 0.00 0.00 32 1012.9
20260504005439 14 265 6.4 12.9 0.00 0.00 0.00 31 1012.7
20260504004936 15 301 8.0 17.7 0.00 0.00 0.00 30 1013.0
20260504004434 15 291 9.7 16.1 0.00 0.00 0.00 30 1012.9
20260504003931 15 248 11.3 19.3 0.00 0.00 0.00 29 1013.0
20260504003427 15 298 9.7 20.9 0.00 0.00 0.00 27 1012.8
20260504002924 15 257 1.6 24.1 0.00 0.00 0.00 27 1013.2
20260504002421 15 298 12.9 27.4 0.00 0.00 0.00 26 1012.8
20260504001918 16 270 8.0 27.4 0.00 0.00 0.00 26 1013.0
20260504001416 16 279 17.7 29.0 0.00 0.00 0.00 26 1012.8
20260504000912 16 273 12.9 17.7 0.00 0.00 0.00 28 1012.9
20260504000409 16 249 9.7 29.0 0.00 0.00 0.00 28 1012.9
20260503235907 16 250 16.1 24.1 0.00 0.00 0.00 28 1012.9
20260503235404 16 287 6.4 30.6 0.00 0.00 0.00 29 1012.9
20260503234902 16 261 8.0 27.4 0.00 0.00 0.00 29 1013.3
20260503234359 16 227 17.7 32.2 0.00 0.00 0.00 30 1013.0
20260503233856 15 18 4.8 24.1 0.00 0.00 0.00 30 1012.9
20260503233353 15 328 14.5 32.2 0.00 0.00 0.00 30 1013.5
20260503232849 15 277 12.9 22.5 0.00 0.00 0.00 29 1012.9
20260503232346 16 274 8.0 27.4 0.00 0.00 0.00 29 1013.2
20260503231845 16 291 11.3 20.9 0.00 0.00 0.00 30 1013.0
20260503231341 16 221 11.3 20.9 0.00 0.00 0.00 29 1013.3
20260503230837 16 263 20.9 29.0 0.00 0.00 0.00 29 1013.3
20260503230334 16 324 17.7 29.0 0.00 0.00 0.00 31 1013.3
20260503225832 16 248 8.0 33.8 0.00 0.00 0.00 29 1013.4
20260503225328 16 313 16.1 27.4 0.00 0.00 0.00 31 1013.0
20260503224824 16 232 12.9 20.9 0.00 0.00 0.00 31 1013.2
20260503224322 16 272 11.3 32.2 0.00 0.00 0.00 30 1013.4
20260503223819 16 299 11.3 29.0 0.00 0.00 0.00 30 1013.4
20260503223317 16 236 11.3 20.9 0.00 0.00 0.00 31 1013.2
20260503222812 16 317 12.9 22.5 0.00 0.00 0.00 32 1013.3
20260503222311 15 232 12.9 30.6 0.00 0.00 0.00 31 1013.5
20260503221809 16 289 12.9 27.4 0.00 0.00 0.00 33 1013.7
20260503221307 16 266 0.0 16.1 0.00 0.00 0.00 36 1013.3
20260503220802 15 303 8.0 27.4 0.00 0.00 0.00 33 1013.5
20260503220300 15 278 8.0 14.5 0.00 0.00 0.00 34 1013.8
20260503215756 15 286 8.0 22.5 0.00 0.00 0.00 34 1014.1
20260503215253 15 328 11.3 22.5 0.00 0.00 0.00 33 1014.1
20260503214751 15 317 9.7 24.1 0.00 0.00 0.00 33 1013.8
20260503214248 15 264 3.2 25.7 0.00 0.00 0.00 34 1013.9
20260503213746 15 246 8.0 16.1 0.00 0.00 0.00 37 1014.2
20260503213243 15 325 1.6 16.1 0.00 0.00 0.00 35 1014.3
20260503212740 15 311 16.1 19.3 0.00 0.00 0.00 36 1014.3
20260503212238 15 253 11.3 19.3 0.00 0.00 0.00 36 1014.4
20260503211735 15 303 12.9 35.4 0.00 0.00 0.00 35 1014.3
20260503211231 16 221 12.9 24.1 0.00 0.00 0.00 35 1014.4
20260503210726 16 252 19.3 33.8 0.00 0.00 0.00 34 1014.6
20260503210224 16 229 16.1 20.9 0.00 0.00 0.00 34 1014.4
20260503205720 15 265 8.0 27.4 0.00 0.00 0.00 35 1014.6
20260503205216 17 321 8.0 33.8 0.00 0.00 0.00 35 1014.8
20260503204712 17 295 6.4 30.6 0.00 0.00 0.00 35 1014.7
20260503204210 16 242 11.3 38.6 0.00 0.00 0.00 33 1014.8
20260503203707 16 311 4.8 24.1 0.00 0.00 0.00 35 1014.9
20260503203205 15 263 4.8 29.0 0.00 0.00 0.00 36 1015.1
20260503202702 17 229 17.7 30.6 0.00 0.00 0.00 34 1014.9
20260503202200 16 338 9.7 25.7 0.00 0.00 0.00 37 1015.1
20260503201657 16 235 11.3 19.3 0.00 0.00 0.00 38 1015.2
20260503201155 15 238 11.3 35.4 0.00 0.00 0.00 36 1015.2
20260503200650 15 251 8.0 22.5 0.00 0.00 0.00 37 1015.6
20260503200147 15 279 16.1 29.0 0.00 0.00 0.00 37 1015.7
20260503195644 15 285 14.5 37.0 0.00 0.00 0.00 35 1015.6
20260503195141 17 276 6.4 19.3 0.00 0.00 0.00 36 1015.3
20260503194638 16 286 4.8 20.9 0.00 0.00 0.00 36 1015.7
20260503194133 15 270 12.9 22.5 0.00 0.00 0.00 36 1015.9
20260503193631 15 267 16.1 30.6 0.00 0.00 0.00 36 1015.7
20260503193126 16 311 12.9 25.7 0.00 0.00 0.00 36 1015.6
20260503192622 16 331 12.9 38.6 0.00 0.00 0.00 35 1015.8
20260503192118 16 322 16.1 27.4 0.00 0.00 0.00 35 1015.8
20260503191615 15 330 19.3 33.8 0.00 0.00 0.00 35 1015.8
20260503191111 15 263 8.0 38.6 0.00 0.00 0.00 36 1015.9
20260503190609 15 250 11.3 33.8 0.00 0.00 0.00 35 1015.8